Location: Baia Mare
(47.6567°N, 23.5850°E)
Time: 23:45:25
(UTC+03:00)

ISS - Pass Details

Date: 10 September 2019
Orbit: 411 x 421 km, 51.6° (Epoch: 19 September)

Event Time Altitude Azimuth Distance (km) Brightness Sun altitude
Exits shadow 04:10:03 29° 45° (NE) 799 -1.7 -25.8°
Drops below altitude 10° 04:12:05 10° 71° (ENE) 1,492 -0.1 -25.5°
Sets 04:14:16 0° 79° (E) 2,357 1.0 -25.2°
